HA9HP Weather Reports


time (UTC)temp
C
wind
direction
speed
KPH
gust
KPH
rain 1hr
cm
rain 24hr
cm
rain mn
cm
humidity
%
barometer
mb
20260506100027 23 155 8.0 22.5 0.00 0.00 0.00 46 1011.2
20260506094528 22 242 8.0 20.9 0.00 0.00 0.00 48 1011.3
20260506093021 22 265 8.0 20.9 0.00 0.00 0.00 50 1011.3
20260506091520 22 257 4.8 22.5 0.00 0.00 0.00 51 1011.4
20260506090023 21 190 8.0 20.9 0.00 0.00 0.00 52 1011.5
20260506084606 21 190 8.0 24.1 0.00 0.00 0.00 52 1011.5
20260506083029 21 191 4.8 17.7 0.00 0.00 0.00 54 1011.4
20260506081523 21 165 4.8 16.1 0.00 0.00 0.00 55 1011.4
20260506073028 19 252 6.4 16.1 0.00 0.00 0.00 58 1011.7
20260506071517 18 217 4.8 14.5 0.00 0.00 0.00 60 1011.7
20260506061512 15 229 6.4 14.5 0.00 0.00 0.00 70 1011.8
20260506044519 13 244 1.6 9.7 0.00 0.00 0.00 72 1011.0
20260506043015 12 160 3.2 8.0 0.00 0.00 0.00 75 1010.8
20260506041515 11 178 1.6 8.0 0.00 0.00 0.00 76 1010.7
20260506040014 11 167 1.6 4.8 0.00 0.00 0.00 76 1010.3
20260506034520 11 151 1.6 4.8 0.00 0.00 0.00 75 1010.2
20260506033015 11 177 3.2 8.0 0.00 0.00 0.00 75 1010.2
20260506031518 11 182 0.0 3.2 0.00 0.00 0.00 75 1010.3
20260506030018 11 182 0.0 4.8 0.00 0.00 0.00 74 1010.3
20260506024516 11 150 1.6 6.4 0.00 0.00 0.00 73 1010.3
20260506023029 11 176 1.6 3.2 0.00 0.00 0.00 73 1010.4
20260506021532 11 221 0.0 3.2 0.00 0.00 0.00 74 1010.3
20260506020025 11 194 0.0 3.2 0.00 0.00 0.00 73 1010.4
20260506014520 12 192 0.0 1.6 0.00 0.00 0.00 72 1010.5
20260506013027 12 184 0.0 3.2 0.00 0.00 0.00 71 1010.6
20260506011519 12 181 0.0 3.2 0.00 0.00 0.00 70 1010.7
20260506010020 12 193 0.0 3.2 0.00 0.00 0.00 70 1010.6
20260506004525 12 238 0.0 3.2 0.00 0.00 0.00 71 1010.6
20260506003021 11 191 0.0 4.8 0.00 0.00 0.00 75 1010.6
20260506001520 10 143 0.0 3.2 0.00 0.00 0.00 75 1010.4
20260506000023 10 144 0.0 3.2 0.00 0.00 0.00 73 1010.4
20260505234524 11 144 0.0 3.2 0.00 0.00 0.00 70 1010.3
20260505233022 12 163 0.0 3.2 0.00 0.00 0.00 66 1010.2
20260505231535 12 200 0.0 3.2 0.00 0.00 0.00 65 1010.3
20260505230027 14 200 0.0 3.2 0.00 0.00 0.00 61 1010.3
20260505224524 14 254 0.0 6.4 0.00 0.00 0.00 60 1010.4
20260505223024 13 252 1.6 6.4 0.00 0.00 0.00 62 1010.5
20260505221527 11 230 1.6 4.8 0.00 0.00 0.00 70 1010.4
20260505220024 10 234 0.0 3.2 0.00 0.00 0.00 75 1010.4
20260505214527 10 234 0.0 3.2 0.00 0.00 0.00 74 1010.4
20260505213016 11 234 0.0 3.2 0.00 0.00 0.00 74 1010.4
20260505211516 11 234 0.0 3.2 0.00 0.00 0.00 74 1010.2
20260505210020 11 234 0.0 3.2 0.00 0.00 0.00 73 1010.2
20260505204527 11 234 0.0 3.2 0.00 0.00 0.00 72 1010.2
20260505203012 12 234 0.0 3.2 0.00 0.00 0.00 71 1010.2
20260505201528 12 234 0.0 3.2 0.00 0.00 0.00 69 1010.1
20260505200017 12 234 0.0 3.2 0.00 0.00 0.00 67 1010.0
20260505194526 13 233 0.0 3.2 0.00 0.00 0.00 65 1009.9
20260505193031 13 213 0.0 3.2 0.00 0.00 0.00 62 1009.9
20260505191514 14 213 0.0 3.2 0.00 0.00 0.00 59 1009.9
20260505190018 15 213 0.0 0.0 0.00 0.00 0.00 55 1009.9
20260505184525 16 213 0.0 0.0 0.00 0.00 0.00 51 1009.9
20260505183028 18 213 0.0 3.2 0.00 0.00 0.00 45 1009.9
20260505181510 20 213 0.0 3.2 0.00 0.00 0.00 40 1009.8
20260505180020 22 199 0.0 4.8 0.00 0.00 0.00 36 1009.8
20260505174528 23 192 1.6 11.3 0.00 0.00 0.00 32 1009.8
20260505173024 24 168 0.0 4.8 0.00 0.00 0.00 30 1009.5
20260505171525 25 150 0.0 4.8 0.00 0.00 0.00 28 1009.3
20260505170019 26 153 1.6 4.8 0.00 0.00 0.00 26 1009.4
20260505164522 26 134 1.6 6.4 0.00 0.00 0.00 25 1009.4
20260505163029 26 186 3.2 11.3 0.00 0.00 0.00 25 1009.6
20260505161526 27 166 4.8 12.9 0.00 0.00 0.00 24 1009.7
20260505153018 25 150 3.2 12.9 0.00 0.00 0.00 25 1010.1
20260505151526 26 119 4.8 11.3 0.00 0.00 0.00 24 1010.2
20260505124526 27 177 6.4 22.5 0.00 0.00 0.00 1011.6
20260505123015 27 141 6.4 16.1 0.00 0.00 0.00 1011.9
20260505121520 27 184 4.8 17.7 0.00 0.00 0.00 1012.2
20260505120026 27 154 4.8 14.5 0.00 0.00 0.00 23 1012.3
20260505114527 27 175 8.0 14.5 0.00 0.00 0.00 1012.5
20260505113017 26 134 6.4 19.3 0.00 0.00 0.00 24 1012.6
20260505111520 26 287 8.0 17.7 0.00 0.00 0.00 24 1012.8
20260505101519 25 178 6.4 17.7 0.00 0.00 0.00 27 1013.5